Time,TemperatureF,DewpointF,PressureIn,WindDirection,WindDirectionDegrees,WindSpeedMPH,WindSpeedGustMPH,Humidity,HourlyPrecipIn,Conditions,Clouds,dailyrainin,SoftwareType,DateUTC
2013-01-31 00:00:00,52.6,52.0,30.34,SSW,211,2.0,4.0,96,0.00,,,0.01,weatherlink.com 1.10,2013-01-30 23:00:00,
2013-01-31 00:15:00,52.4,51.0,30.35,South,169,0.0,3.0,96,0.00,,,0.00,weatherlink.com 1.10,2013-01-30 23:15:00,
2013-01-31 00:30:00,51.6,51.0,30.36,ESE,105,0.0,2.0,96,0.00,,,0.00,weatherlink.com 1.10,2013-01-30 23:30:00,
2013-01-31 00:45:00,51.9,51.0,30.35,ESE,105,0.0,1.0,95,0.00,,,0.00,weatherlink.com 1.10,2013-01-30 23:45:00,
2013-01-31 01:00:00,52.3,51.0,30.36,SE,146,2.0,2.0,95,0.00,,,0.00,weatherlink.com 1.10,2013-01-31 00:00:00,
2013-01-31 01:15:00,52.9,51.0,30.36,SE,127,1.0,3.0,93,0.00,,,0.00,weatherlink.com 1.10,2013-01-31 00:15:00,
2013-01-31 01:30:00,53.5,51.0,30.36,SSE,159,0.0,2.0,92,0.00,,,0.00,weatherlink.com 1.10,2013-01-31 00:30:00,
2013-01-31 01:45:00,54.0,51.0,30.37,SE,127,1.0,1.0,90,0.00,,,0.00,weatherlink.com 1.10,2013-01-31 00:45:00,
2013-01-31 02:00:00,55.2,50.0,30.37,East,83,1.0,2.0,81,0.00,,,0.00,weatherlink.com 1.10,2013-01-31 01:00:00,
2013-01-31 02:15:00,57.0,48.0,30.37,SSW,213,1.0,1.0,72,0.00,,,0.00,weatherlink.com 1.10,2013-01-31 01:15:00,
2013-01-31 02:30:00,58.0,48.0,30.37,NNW,345,2.0,2.0,69,0.00,,,0.00,weatherlink.com 1.10,2013-01-31 01:30:00,
2013-01-31 02:45:00,55.7,47.0,30.37,NE,42,1.0,2.0,72,0.00,,,0.00,weatherlink.com 1.10,2013-01-31 01:45:00,
2013-01-31 03:00:00,57.5,47.0,30.37,NNE,20,1.0,2.0,68,0.00,,,0.00,weatherlink.com 1.10,2013-01-31 02:00:00,
2013-01-31 03:15:00,58.6,47.0,30.37,West,281,2.0,4.0,65,0.00,,,0.00,weatherlink.com 1.10,2013-01-31 02:15:00,
2013-01-31 03:30:00,57.2,47.0,30.36,NNE,29,1.0,2.0,68,0.00,,,0.00,weatherlink.com 1.10,2013-01-31 02:30:00,
2013-01-31 03:45:00,57.9,47.0,30.36,NNE,33,1.0,1.0,66,0.00,,,0.00,weatherlink.com 1.10,2013-01-31 02:45:00,
2013-01-31 04:00:00,58.7,46.0,30.36,NE,36,0.0,1.0,63,0.00,,,0.00,weatherlink.com 1.10,2013-01-31 03:00:00,
2013-01-31 04:15:00,58.9,46.0,30.36,North,352,2.0,2.0,63,0.00,,,0.00,weatherlink.com 1.10,2013-01-31 03:15:00,
2013-01-31 04:30:00,59.1,46.0,30.36,NNE,32,2.0,2.0,62,0.00,,,0.00,weatherlink.com 1.10,2013-01-31 03:30:00,
2013-01-31 04:45:00,60.4,46.0,30.36,NE,40,1.0,1.0,60,0.00,,,0.00,weatherlink.com 1.10,2013-01-31 03:45:00,
2013-01-31 05:00:00,61.8,46.0,30.36,ENE,67,1.0,1.0,56,0.00,,,0.00,weatherlink.com 1.10,2013-01-31 04:00:00,
2013-01-31 05:15:00,62.0,45.0,30.36,NE,46,1.0,2.0,55,0.00,,,0.00,weatherlink.com 1.10,2013-01-31 04:15:00,
2013-01-31 05:30:00,60.7,45.0,30.37,SSW,208,2.0,2.0,57,0.00,,,0.00,weatherlink.com 1.10,2013-01-31 04:30:00,
2013-01-31 05:45:00,57.3,46.0,30.37,NNW,338,2.0,3.0,65,0.00,,,0.00,weatherlink.com 1.10,2013-01-31 04:45:00,
2013-01-31 06:15:00,58.9,46.0,30.38,ENE,71,2.0,2.0,62,0.00,,,0.00,weatherlink.com 1.10,2013-01-31 05:15:00,
2013-01-31 06:30:00,60.5,45.0,30.38,South,183,1.0,3.0,57,0.00,,,0.00,weatherlink.com 1.10,2013-01-31 05:30:00,
2013-01-31 06:45:00,60.3,45.0,30.38,SSW,195,0.0,2.0,58,0.00,,,0.00,weatherlink.com 1.10,2013-01-31 05:45:00,
2013-01-31 07:00:00,58.2,45.0,30.39,SE,124,1.0,2.0,63,0.00,,,0.00,weatherlink.com 1.10,2013-01-31 06:00:00,
2013-01-31 07:16:00,57.5,46.0,30.39,SSE,162,1.0,3.0,65,0.00,,,0.00,weatherlink.com 1.10,2013-01-31 06:16:00,
2013-01-31 07:31:00,58.1,45.0,30.39,SSE,168,2.0,2.0,63,0.00,,,0.00,weatherlink.com 1.10,2013-01-31 06:31:00,
2013-01-31 07:46:00,58.3,46.0,30.40,South,172,1.0,2.0,63,0.00,,,0.00,weatherlink.com 1.10,2013-01-31 06:46:00,
2013-01-31 08:01:00,58.7,46.0,30.40,SE,146,2.0,4.0,63,0.00,,,0.00,weatherlink.com 1.10,2013-01-31 07:01:00,
2013-01-31 08:16:00,58.0,47.0,30.40,SSW,195,3.0,5.0,66,0.00,,,0.00,weatherlink.com 1.10,2013-01-31 07:16:00,
2013-01-31 08:31:00,57.1,47.0,30.41,South,188,3.0,4.0,69,0.00,,,0.00,weatherlink.com 1.10,2013-01-31 07:31:00,
2013-01-31 08:46:00,56.0,47.0,30.41,SW,214,1.0,4.0,72,0.00,,,0.00,weatherlink.com 1.10,2013-01-31 07:46:00,
2013-01-31 09:01:00,56.4,47.0,30.42,South,191,0.0,1.0,71,0.00,,,0.00,weatherlink.com 1.10,2013-01-31 08:01:00,
2013-01-31 09:16:00,57.7,48.0,30.42,South,191,0.0,1.0,70,0.00,,,0.00,weatherlink.com 1.10,2013-01-31 08:16:00,
2013-01-31 09:31:00,58.4,48.0,30.42,South,191,0.0,1.0,69,0.00,,,0.00,weatherlink.com 1.10,2013-01-31 08:31:00,
2013-01-31 09:46:00,58.4,49.0,30.42,South,191,0.0,1.0,70,0.00,,,0.00,weatherlink.com 1.10,2013-01-31 08:46:00,
2013-01-31 10:01:00,57.6,49.0,30.42,North,3,1.0,1.0,73,0.00,,,0.00,weatherlink.com 1.10,2013-01-31 09:01:00,
2013-01-31 10:31:00,58.6,50.0,30.42,North,360,0.0,2.0,74,0.00,,,0.00,weatherlink.com 1.10,2013-01-31 09:31:00,
2013-01-31 10:46:00,60.4,51.0,30.43,NW,319,0.0,2.0,71,0.00,,,0.00,weatherlink.com 1.10,2013-01-31 09:46:00,
2013-01-31 11:01:00,63.2,49.0,30.43,SSW,194,2.0,4.0,60,0.00,,,0.00,weatherlink.com 1.10,2013-01-31 10:01:00,
2013-01-31 11:16:00,64.1,49.0,30.43,SW,226,3.0,7.0,58,0.00,,,0.00,weatherlink.com 1.10,2013-01-31 10:16:00,
2013-01-31 11:31:00,64.9,50.0,30.44,WSW,253,5.0,6.0,58,0.00,,,0.00,weatherlink.com 1.10,2013-01-31 10:31:00,
2013-01-31 11:46:00,65.2,49.0,30.44,SSE,152,2.0,6.0,57,0.00,,,0.00,weatherlink.com 1.10,2013-01-31 10:46:00,
2013-01-31 12:01:00,65.4,50.0,30.44,WSW,249,3.0,6.0,57,0.00,,,0.00,weatherlink.com 1.10,2013-01-31 11:01:00,
2013-01-31 12:16:00,65.7,50.0,30.44,West,264,2.0,5.0,57,0.00,,,0.00,weatherlink.com 1.10,2013-01-31 11:16:00,
2013-01-31 12:31:00,65.5,49.0,30.44,SSW,203,2.0,8.0,56,0.00,,,0.00,weatherlink.com 1.10,2013-01-31 11:31:00,
2013-01-31 12:46:00,65.8,49.0,30.43,SSW,201,4.0,7.0,56,0.00,,,0.00,weatherlink.com 1.10,2013-01-31 11:46:00,
2013-01-31 13:01:00,65.4,50.0,30.43,WSW,255,3.0,6.0,58,0.00,,,0.00,weatherlink.com 1.10,2013-01-31 12:01:00,
2013-01-31 13:16:00,65.8,50.0,30.42,SSW,209,6.0,7.0,58,0.00,,,0.00,weatherlink.com 1.10,2013-01-31 12:16:00,
2013-01-31 13:31:00,66.0,49.0,30.42,WSW,246,3.0,6.0,55,0.00,,,0.00,weatherlink.com 1.10,2013-01-31 12:31:00,
2013-01-31 13:46:00,66.5,50.0,30.41,SSW,193,2.0,7.0,55,0.00,,,0.00,weatherlink.com 1.10,2013-01-31 12:46:00,
2013-01-31 14:02:00,66.3,49.0,30.41,WSW,257,2.0,7.0,54,0.00,,,0.00,weatherlink.com 1.10,2013-01-31 13:02:00,
2013-01-31 14:17:00,66.2,49.0,30.40,SSW,208,4.0,10.0,54,0.00,,,0.00,weatherlink.com 1.10,2013-01-31 13:17:00,
2013-01-31 14:32:00,66.2,48.0,30.39,SW,233,5.0,10.0,53,0.00,,,0.00,weatherlink.com 1.10,2013-01-31 13:32:00,
2013-01-31 14:47:00,65.9,48.0,30.39,SW,232,2.0,12.0,52,0.00,,,0.00,weatherlink.com 1.10,2013-01-31 13:47:00,
2013-01-31 15:02:00,65.8,47.0,30.38,SSW,208,7.0,11.0,51,0.00,,,0.00,weatherlink.com 1.10,2013-01-31 14:02:00,
2013-01-31 15:17:00,65.6,47.0,30.37,SSW,211,10.0,10.0,52,0.00,,,0.00,weatherlink.com 1.10,2013-01-31 14:17:00,
2013-01-31 15:32:00,65.7,47.0,30.37,SSW,205,5.0,9.0,51,0.00,,,0.00,weatherlink.com 1.10,2013-01-31 14:32:00,
2013-01-31 15:47:00,65.7,48.0,30.36,SW,218,6.0,10.0,53,0.00,,,0.00,weatherlink.com 1.10,2013-01-31 14:47:00,
2013-01-31 16:02:00,65.6,47.0,30.37,SW,221,6.0,9.0,52,0.00,,,0.00,weatherlink.com 1.10,2013-01-31 15:02:00,
2013-01-31 16:17:00,65.2,47.0,30.37,SSW,208,4.0,9.0,53,0.00,,,0.00,weatherlink.com 1.10,2013-01-31 15:17:00,
2013-01-31 16:32:00,64.8,48.0,30.37,South,176,3.0,10.0,54,0.00,,,0.00,weatherlink.com 1.10,2013-01-31 15:32:00,
2013-01-31 16:47:00,64.6,47.0,30.36,SSE,167,4.0,8.0,54,0.00,,,0.00,weatherlink.com 1.10,2013-01-31 15:47:00,
2013-01-31 17:02:00,64.1,47.0,30.36,SW,226,6.0,8.0,54,0.00,,,0.00,weatherlink.com 1.10,2013-01-31 16:02:00,
2013-01-31 17:17:00,63.6,47.0,30.36,SW,215,3.0,7.0,56,0.00,,,0.00,weatherlink.com 1.10,2013-01-31 16:17:00,
2013-01-31 17:32:00,63.1,47.0,30.36,South,171,5.0,6.0,56,0.00,,,0.00,weatherlink.com 1.10,2013-01-31 16:32:00,
2013-01-31 17:47:00,62.5,47.0,30.36,SSW,205,3.0,5.0,57,0.00,,,0.00,weatherlink.com 1.10,2013-01-31 16:47:00,
2013-01-31 18:02:00,61.5,46.0,30.37,South,180,1.0,3.0,58,0.00,,,0.00,weatherlink.com 1.10,2013-01-31 17:02:00,
2013-01-31 18:17:00,59.8,46.0,30.36,SSE,163,1.0,3.0,61,0.00,,,0.00,weatherlink.com 1.10,2013-01-31 17:17:00,
2013-01-31 18:32:00,59.1,46.0,30.37,SSW,197,4.0,5.0,62,0.00,,,0.00,weatherlink.com 1.10,2013-01-31 17:32:00,
2013-01-31 18:47:00,58.6,46.0,30.36,SSW,193,3.0,6.0,63,0.00,,,0.00,weatherlink.com 1.10,2013-01-31 17:47:00,
2013-01-31 19:02:00,57.8,46.0,30.37,SSW,201,0.0,3.0,64,0.00,,,0.00,weatherlink.com 1.10,2013-01-31 18:02:00,
2013-01-31 19:17:00,57.2,46.0,30.37,SW,235,0.0,2.0,66,0.00,,,0.00,weatherlink.com 1.10,2013-01-31 18:17:00,
2013-01-31 19:32:00,56.7,47.0,30.37,WSW,250,3.0,4.0,69,0.00,,,0.00,weatherlink.com 1.10,2013-01-31 18:32:00,
2013-01-31 19:47:00,54.6,48.0,30.38,South,183,1.0,7.0,78,0.00,,,0.00,weatherlink.com 1.10,2013-01-31 18:47:00,
2013-01-31 20:02:00,53.4,51.0,30.37,SW,215,4.0,5.0,91,0.00,,,0.00,weatherlink.com 1.10,2013-01-31 19:02:00,
2013-01-31 20:17:00,53.1,51.0,30.37,SSW,205,4.0,6.0,93,0.00,,,0.00,weatherlink.com 1.10,2013-01-31 19:17:00,
2013-01-31 20:32:00,52.8,51.0,30.37,SW,233,3.0,6.0,94,0.00,,,0.00,weatherlink.com 1.10,2013-01-31 19:32:00,
2013-01-31 20:47:00,52.5,51.0,30.37,SW,218,0.0,5.0,95,0.00,,,0.00,weatherlink.com 1.10,2013-01-31 19:47:00,
2013-01-31 21:02:00,52.2,51.0,30.37,WSW,238,4.0,5.0,95,0.00,,,0.00,weatherlink.com 1.10,2013-01-31 20:02:00,
2013-01-31 21:17:00,51.8,51.0,30.37,SSW,211,4.0,5.0,96,0.00,,,0.00,weatherlink.com 1.10,2013-01-31 20:17:00,
2013-01-31 21:32:00,51.7,51.0,30.36,SW,219,2.0,4.0,96,0.00,,,0.00,weatherlink.com 1.10,2013-01-31 20:32:00,
2013-01-31 21:47:00,51.4,50.0,30.36,SSW,200,2.0,5.0,96,0.00,,,0.00,weatherlink.com 1.10,2013-01-31 20:47:00,
2013-01-31 22:02:00,51.4,50.0,30.36,SW,217,5.0,5.0,96,0.00,,,0.00,weatherlink.com 1.10,2013-01-31 21:02:00,
2013-01-31 22:17:00,51.2,50.0,30.36,SW,214,3.0,5.0,96,0.00,,,0.00,weatherlink.com 1.10,2013-01-31 21:17:00,
2013-01-31 22:32:00,51.1,50.0,30.35,South,190,3.0,5.0,96,0.00,,,0.00,weatherlink.com 1.10,2013-01-31 21:32:00,
2013-01-31 22:47:00,51.0,50.0,30.35,SW,220,3.0,4.0,97,0.00,,,0.00,weatherlink.com 1.10,2013-01-31 21:47:00,
2013-01-31 23:02:00,50.6,50.0,30.35,SSW,204,3.0,4.0,97,0.00,,,0.00,weatherlink.com 1.10,2013-01-31 22:02:00,
2013-01-31 23:17:00,50.6,50.0,30.34,SW,223,0.0,5.0,97,0.00,,,0.00,weatherlink.com 1.10,2013-01-31 22:17:00,
2013-01-31 23:32:00,50.4,50.0,30.34,SE,136,3.0,6.0,97,0.00,,,0.00,weatherlink.com 1.10,2013-01-31 22:32:00,
2013-01-31 23:47:00,50.3,50.0,30.34,SSW,194,2.0,6.0,97,0.00,,,0.00,weatherlink.com 1.10,2013-01-31 22:47:00,